Burlington, IA

10:46 PM CDT on August 24, 2016 (GMT -0500)
Burlington Regional

Weather History for KBRL - December, 2013

Change the Weather History Date:

Tuesday, December 17, 2013

  Actual Average Record
Temperature  
Mean Temperature 27 °F 28 °F  
Max Temperature 38 °F 36 °F 59 °F (1939)
Min Temperature 15 °F 20 °F -7 °F (1945)
Degree Days  
Heating Degree Days 38 37  
Month to date heating degree days 710 579  
Since 1 July heating degree days 1947 1652  
Cooling Degree Days 0 0  
Month to date cooling degree days 0 0  
Year to date cooling degree days 1115 1207  
Moisture  
Dew Point 18 °F    
Average Humidity 72    
Maximum Humidity 100    
Minimum Humidity 44    
Precipitation  
Precipitation 0.03 in 0.06 in 0.31 in (1963)
Month to date precipitation 0.63 1.24  
Year to date precipitation 33.02 37.63  
Sea Level Pressure  
Sea Level Pressure 30.13 in    
Wind  
Wind Speed 8 mph (West)    
Max Wind Speed 17 mph    
Max Gust Speed 30 mph    
Visibility 6 miles    
Events Snow    
T = Trace of Precipitation, MM = Missing Value Source: NWS Daily Summary

Daily Weather History Graph

Daily Weather History Graph

Search for Another Location

Airport or City:

Trip Planner

Search our weather history database for the weather conditions in past years. The results will help you decide how hot, cold, wet, or windy it might be!

Date:

Astronomy

Dec. 17, 2013 Rise Set
Actual Time 7:23 AM CST 4:38 PM CST
Civil Twilight 6:52 AM CST 5:09 PM CST
Nautical Twilight 6:17 AM CST 5:44 PM CST
Astronomical Twilight 5:44 AM CST 6:17 PM CST
Moon 5:18 PM CST (12/17) 7:19 AM CST (12/17)
Length of Visible Light 10h 17m
Length of Day
9h 15m
Full, 100% of the Moon is Illuminated
Dec 17
Full
Dec 25
Last Quarter
Jan 1
New
Jan 7
First Quarter
Jan 15
Full

Hourly Weather History & Observations

Time (CST) Temp. Windchill Dew Point Humidity Pressure Visibility Wind Dir Wind Speed Gust Speed Precip Events Conditions
12:53 AM 23.0 °F - 21.0 °F 92% 30.13 in 5.0 mi Calm Calm - N/A   Overcast
1:53 AM 23.0 °F 18.4 °F 21.0 °F 92% 30.14 in 5.0 mi SW 3.5 mph - N/A   Overcast
2:01 AM 21.2 °F 14.9 °F 19.4 °F 93% 30.11 in 5.0 mi WSW 4.6 mph - N/A   Overcast
2:53 AM 21.0 °F 13.4 °F 19.0 °F 92% 30.14 in 5.0 mi WSW 5.8 mph - N/A   Mostly Cloudy
3:53 AM 18.0 °F 8.7 °F 16.0 °F 92% 30.14 in 5.0 mi West 6.9 mph - N/A   Clear
4:53 AM 17.1 °F 10.0 °F 15.1 °F 92% 30.13 in 4.0 mi WSW 4.6 mph - N/A   Clear
5:24 AM 15.8 °F 5.1 °F 14.0 °F 93% 30.09 in 2.5 mi SW 8.1 mph - N/A   Clear
5:31 AM 15.8 °F 5.1 °F 12.2 °F 86% 30.09 in 3.0 mi SW 8.1 mph - N/A   Clear
5:53 AM 15.1 °F 6.4 °F 12.9 °F 91% 30.14 in 3.0 mi WSW 5.8 mph - N/A   Partly Cloudy
6:29 AM 17.6 °F 8.2 °F 15.8 °F 93% 30.09 in 2.5 mi SW 6.9 mph - N/A   Scattered Clouds
6:40 AM 15.8 °F 5.1 °F 15.8 °F 100% 30.08 in 1.5 mi SW 8.1 mph - N/A   Partly Cloudy
6:53 AM 16.0 °F 5.3 °F 15.1 °F 96% 30.12 in 1.5 mi SW 8.1 mph - N/A   Clear
7:09 AM 15.8 °F 5.1 °F 14.0 °F 93% 30.09 in 2.5 mi WSW 8.1 mph - N/A   Clear
7:27 AM 17.6 °F 7.3 °F 15.8 °F 93% 30.08 in 1.8 mi SW 8.1 mph - N/A   Mostly Cloudy
7:36 AM 19.4 °F 10.4 °F 17.6 °F 93% 30.08 in 2.5 mi WSW 6.9 mph - N/A   Mostly Cloudy
7:53 AM 21.0 °F 13.4 °F 19.0 °F 92% 30.12 in 3.0 mi WSW 5.8 mph - N/A   Overcast
8:53 AM 27.0 °F 18.7 °F 24.1 °F 89% 30.14 in 8.0 mi WNW 8.1 mph - N/A   Overcast
9:53 AM 30.0 °F 20.5 °F 25.0 °F 82% 30.17 in 3.0 mi WNW 11.5 mph - 0.00 in Snow Light Snow
9:57 AM 30.2 °F 20.8 °F 26.6 °F 86% 30.14 in 1.8 mi WNW 11.5 mph - 0.00 in Snow Light Snow
10:04 AM 30.2 °F 21.9 °F 26.6 °F 86% 30.13 in 2.0 mi WNW 9.2 mph 18.4 mph 0.00 in Snow Light Snow
10:24 AM 30.2 °F 20.8 °F 28.4 °F 93% 30.12 in 3.0 mi West 11.5 mph - 0.00 in Snow Light Snow
10:53 AM 34.0 °F 26.0 °F 28.0 °F 79% 30.14 in 10.0 mi West 10.4 mph - 0.03 in   Overcast
1:53 PM 37.9 °F 28.5 °F 21.9 °F 53% 30.09 in 10.0 mi WNW 17.3 mph 25.3 mph N/A   Partly Cloudy
2:53 PM 36.0 °F 27.5 °F 17.1 °F 46% 30.11 in 10.0 mi NW 12.7 mph 23.0 mph N/A   Clear
3:53 PM 35.1 °F 27.4 °F 16.0 °F 46% 30.13 in 10.0 mi WNW 10.4 mph 24.2 mph N/A   Clear
4:53 PM 33.1 °F 24.9 °F 17.1 °F 52% 30.14 in 10.0 mi WNW 10.4 mph - N/A   Clear
5:53 PM 32.0 °F 23.6 °F 16.0 °F 52% 30.16 in 10.0 mi WNW 10.4 mph 21.9 mph N/A   Clear
6:53 PM 30.0 °F 20.5 °F 12.9 °F 49% 30.18 in 10.0 mi WNW 11.5 mph 21.9 mph N/A   Clear
7:53 PM 28.0 °F 20.0 °F 12.9 °F 53% 30.19 in 10.0 mi West 8.1 mph - N/A   Clear
8:53 PM 28.0 °F 18.6 °F 14.0 °F 56% 30.20 in 10.0 mi WNW 10.4 mph - N/A   Clear
9:53 PM 28.0 °F 20.0 °F 14.0 °F 56% 30.21 in 10.0 mi WNW 8.1 mph - N/A   Clear
10:53 PM 26.1 °F 19.4 °F 12.9 °F 58% 30.21 in 10.0 mi WNW 5.8 mph - N/A   Clear
11:53 PM 24.1 °F 19.7 °F 12.0 °F 60% 30.20 in 10.0 mi West 3.5 mph - N/A   Clear